Year,Month,Day,Hour,Minute,Value (Times are PST for temperature in C)
2022,01,31,00,00,4.80
2022,01,31,00,01,4.80
2022,01,31,00,02,4.80
2022,01,31,00,03,4.80
2022,01,31,00,04,4.80
2022,01,31,00,05,4.80
2022,01,31,00,06,4.90
2022,01,31,00,07,4.90
2022,01,31,00,08,4.90
2022,01,31,00,09,4.90
2022,01,31,00,10,4.90
2022,01,31,00,11,4.90
2022,01,31,00,12,4.90
2022,01,31,00,13,4.90
2022,01,31,00,14,4.90
2022,01,31,00,15,4.90
2022,01,31,00,16,4.90
2022,01,31,00,17,4.90
2022,01,31,00,18,4.90
2022,01,31,00,19,4.90
2022,01,31,00,20,4.90
2022,01,31,00,21,4.90
2022,01,31,00,22,4.90
2022,01,31,00,23,4.90
2022,01,31,00,24,4.90
2022,01,31,00,25,4.90
2022,01,31,00,26,4.90
2022,01,31,00,27,4.90
2022,01,31,00,28,4.90
2022,01,31,00,29,4.90
2022,01,31,00,30,4.90
2022,01,31,00,31,4.90
2022,01,31,00,32,4.90
2022,01,31,00,33,4.90
2022,01,31,00,34,4.90
2022,01,31,00,35,4.90
2022,01,31,00,36,4.90
2022,01,31,00,37,4.80
2022,01,31,00,38,4.80
2022,01,31,00,39,4.80
2022,01,31,00,40,4.90
2022,01,31,00,41,4.90
2022,01,31,00,42,4.90
2022,01,31,00,43,4.90
2022,01,31,00,44,4.90
2022,01,31,00,45,4.90
2022,01,31,00,46,4.90
2022,01,31,00,47,4.90
2022,01,31,00,48,4.90
2022,01,31,00,49,5.00
2022,01,31,00,50,5.00
2022,01,31,00,51,5.00
2022,01,31,00,52,5.10
2022,01,31,00,53,5.10
2022,01,31,00,54,5.10
2022,01,31,00,55,5.10
2022,01,31,00,56,5.10
2022,01,31,00,57,5.10
2022,01,31,00,58,5.10
2022,01,31,00,59,5.10
2022,01,31,01,00,5.20
2022,01,31,01,01,5.30
2022,01,31,01,02,5.30
2022,01,31,01,03,5.40
2022,01,31,01,04,5.40
2022,01,31,01,05,5.40
2022,01,31,01,06,5.40
2022,01,31,01,07,5.50
2022,01,31,01,08,5.50
2022,01,31,01,09,5.50
2022,01,31,01,10,5.50
2022,01,31,01,11,5.40
2022,01,31,01,12,5.40
2022,01,31,01,13,5.40
2022,01,31,01,14,5.40
2022,01,31,01,15,5.30
2022,01,31,01,16,5.30
2022,01,31,01,17,5.30
2022,01,31,01,18,5.30
2022,01,31,01,19,5.30
2022,01,31,01,20,5.30
2022,01,31,01,21,5.30
2022,01,31,01,22,5.30
2022,01,31,01,23,5.30
2022,01,31,01,24,5.30
2022,01,31,01,25,5.30
2022,01,31,01,26,5.30
2022,01,31,01,27,5.30
2022,01,31,01,28,5.30
2022,01,31,01,29,5.20
2022,01,31,01,30,5.20
2022,01,31,01,31,5.20
2022,01,31,01,32,5.30
2022,01,31,01,33,5.20
2022,01,31,01,34,5.20
2022,01,31,01,35,5.20
2022,01,31,01,36,5.20
2022,01,31,01,37,5.20
2022,01,31,01,38,5.20
2022,01,31,01,39,5.20
2022,01,31,01,40,5.30
2022,01,31,01,41,5.30
2022,01,31,01,42,5.20
2022,01,31,01,43,5.20
2022,01,31,01,44,5.20
2022,01,31,01,45,5.20
2022,01,31,01,46,5.20
2022,01,31,01,47,5.20
2022,01,31,01,48,5.20
2022,01,31,01,49,5.20
2022,01,31,01,50,5.30
2022,01,31,01,51,5.30
2022,01,31,01,52,5.30
2022,01,31,01,53,5.30
2022,01,31,01,54,5.30
2022,01,31,01,55,5.20
2022,01,31,01,56,5.20
2022,01,31,01,57,5.20
2022,01,31,01,58,5.20
2022,01,31,01,59,5.20
2022,01,31,02,00,5.20
2022,01,31,02,01,5.20
2022,01,31,02,02,5.20
2022,01,31,02,03,5.20
2022,01,31,02,04,5.10
2022,01,31,02,05,5.10
2022,01,31,02,06,5.10
2022,01,31,02,07,5.10
2022,01,31,02,08,5.00
2022,01,31,02,09,5.00
2022,01,31,02,10,5.00
2022,01,31,02,11,4.90
2022,01,31,02,12,4.90
2022,01,31,02,13,4.90
2022,01,31,02,14,4.90
2022,01,31,02,15,4.90
2022,01,31,02,16,5.00
2022,01,31,02,17,5.00
2022,01,31,02,18,5.00
2022,01,31,02,19,5.00
2022,01,31,02,20,4.90
2022,01,31,02,21,4.90
2022,01,31,02,22,4.90
2022,01,31,02,23,5.00
2022,01,31,02,24,5.00
2022,01,31,02,25,4.90
2022,01,31,02,26,4.90
2022,01,31,02,27,4.90
2022,01,31,02,28,4.90
2022,01,31,02,29,4.90
2022,01,31,02,30,4.90
2022,01,31,02,31,4.90
2022,01,31,02,32,4.90
2022,01,31,02,33,4.90
2022,01,31,02,34,5.00
2022,01,31,02,35,5.00
2022,01,31,02,36,5.00
2022,01,31,02,37,5.00
2022,01,31,02,38,5.10
2022,01,31,02,39,5.10
2022,01,31,02,40,5.10
2022,01,31,02,41,5.10
2022,01,31,02,42,5.00
2022,01,31,02,43,5.00
2022,01,31,02,44,4.90
2022,01,31,02,45,4.90
2022,01,31,02,46,4.90
2022,01,31,02,47,4.90
2022,01,31,02,48,4.90
2022,01,31,02,49,4.90
2022,01,31,02,50,4.90
2022,01,31,02,51,5.00
2022,01,31,02,52,5.00
2022,01,31,02,53,5.10
2022,01,31,02,54,5.10
2022,01,31,02,55,5.10
2022,01,31,02,56,5.10
2022,01,31,02,57,5.10
2022,01,31,02,58,5.10
2022,01,31,02,59,5.10
2022,01,31,03,00,5.10
2022,01,31,03,01,5.10
2022,01,31,03,02,5.10
2022,01,31,03,03,5.10
2022,01,31,03,04,5.20
2022,01,31,03,05,5.20
2022,01,31,03,06,5.10
2022,01,31,03,07,5.20
2022,01,31,03,08,5.20
2022,01,31,03,09,5.20
2022,01,31,03,10,5.20
2022,01,31,03,11,5.20
2022,01,31,03,12,5.20
2022,01,31,03,13,5.20
2022,01,31,03,14,5.20
2022,01,31,03,15,5.20
2022,01,31,03,16,5.20
2022,01,31,03,17,5.20
2022,01,31,03,18,5.20
2022,01,31,03,19,5.30
2022,01,31,03,20,5.30
2022,01,31,03,21,5.30
2022,01,31,03,22,5.20
2022,01,31,03,23,5.20
2022,01,31,03,24,5.20
2022,01,31,03,25,5.20
2022,01,31,03,26,5.20
2022,01,31,03,27,5.20
2022,01,31,03,28,5.20
2022,01,31,03,29,5.20
2022,01,31,03,30,5.20
2022,01,31,03,31,5.20
2022,01,31,03,32,5.20
2022,01,31,03,33,5.20
2022,01,31,03,34,5.10
2022,01,31,03,35,5.10
2022,01,31,03,36,5.10
2022,01,31,03,37,5.10
2022,01,31,03,38,5.10
2022,01,31,03,39,5.10
2022,01,31,03,40,5.10
2022,01,31,03,41,5.10
2022,01,31,03,42,5.00
2022,01,31,03,43,5.00
2022,01,31,03,44,5.00
2022,01,31,03,45,5.00
2022,01,31,03,46,5.00
2022,01,31,03,47,4.90
2022,01,31,03,48,4.90
2022,01,31,03,49,4.90
2022,01,31,03,50,4.90
2022,01,31,03,51,4.90
2022,01,31,03,52,4.80
2022,01,31,03,53,4.80
2022,01,31,03,54,4.80
2022,01,31,03,55,4.80
2022,01,31,03,56,4.80
2022,01,31,03,57,4.80
2022,01,31,03,58,4.80
2022,01,31,03,59,4.80
2022,01,31,04,00,4.80
2022,01,31,04,01,4.80
2022,01,31,04,02,4.80
2022,01,31,04,03,4.80
2022,01,31,04,04,4.80
2022,01,31,04,05,4.80
2022,01,31,04,06,4.80
2022,01,31,09,45,4.90
2022,01,31,09,46,4.90
2022,01,31,09,47,4.90
2022,01,31,09,48,4.90
2022,01,31,09,49,4.90
2022,01,31,09,50,5.00
2022,01,31,09,51,5.00
2022,01,31,09,52,5.00
2022,01,31,09,53,5.10
2022,01,31,09,54,5.10
2022,01,31,09,55,5.10
2022,01,31,09,56,5.10
2022,01,31,09,57,5.20
2022,01,31,09,58,5.20
2022,01,31,09,59,5.20
2022,01,31,10,00,5.30
2022,01,31,10,01,5.30
2022,01,31,10,02,5.30
2022,01,31,10,03,5.40
2022,01,31,10,04,5.40
2022,01,31,10,05,5.50
2022,01,31,10,06,5.50
2022,01,31,10,07,5.50
2022,01,31,10,08,5.60
2022,01,31,10,09,5.60
2022,01,31,10,10,5.60
2022,01,31,10,11,5.70
2022,01,31,10,12,5.70
2022,01,31,10,13,5.80
2022,01,31,10,14,5.80
2022,01,31,10,15,5.80
2022,01,31,10,16,5.80
2022,01,31,10,17,5.90
2022,01,31,10,18,5.90
2022,01,31,10,19,5.90
2022,01,31,10,20,5.90
2022,01,31,10,21,5.90
2022,01,31,10,22,5.90
2022,01,31,10,23,5.90
2022,01,31,10,24,5.90
2022,01,31,10,25,5.90
2022,01,31,10,26,5.90
2022,01,31,10,27,5.90
2022,01,31,10,28,5.90
2022,01,31,10,29,6.00
2022,01,31,10,30,6.00
2022,01,31,10,31,6.10
2022,01,31,10,32,6.10
2022,01,31,10,33,6.20
2022,01,31,10,34,6.20
2022,01,31,10,35,6.20
2022,01,31,10,36,6.20
2022,01,31,10,37,6.20
2022,01,31,10,38,6.30
2022,01,31,10,39,6.20
2022,01,31,10,40,6.20
2022,01,31,10,41,6.20
2022,01,31,10,42,6.20
2022,01,31,10,43,6.20
2022,01,31,10,44,6.20
2022,01,31,10,45,6.20
2022,01,31,10,46,6.20
2022,01,31,10,47,6.20
2022,01,31,10,48,6.20
2022,01,31,10,49,6.20
2022,01,31,10,50,6.20
2022,01,31,10,51,6.20
2022,01,31,10,52,6.30
2022,01,31,10,53,6.30
2022,01,31,10,54,6.30
2022,01,31,10,55,6.40
2022,01,31,10,56,6.40
2022,01,31,10,57,6.50
2022,01,31,10,58,6.50
2022,01,31,10,59,6.40
2022,01,31,11,00,6.40
2022,01,31,11,01,6.40
2022,01,31,11,02,6.40
2022,01,31,11,03,6.40
2022,01,31,11,04,6.40
2022,01,31,11,05,6.40
2022,01,31,11,06,6.50
2022,01,31,11,07,6.50
2022,01,31,11,08,6.50
2022,01,31,11,09,6.50
2022,01,31,11,10,6.60
2022,01,31,11,11,6.60
2022,01,31,11,12,6.60
2022,01,31,11,13,6.60
2022,01,31,11,14,6.70
2022,01,31,11,15,6.70
2022,01,31,11,16,6.70
2022,01,31,11,17,6.80
2022,01,31,11,18,6.80
2022,01,31,11,19,6.80
2022,01,31,11,20,6.90
2022,01,31,11,21,6.90
2022,01,31,11,22,6.90
2022,01,31,11,23,6.90
2022,01,31,11,24,7.00
2022,01,31,11,25,7.00
2022,01,31,11,26,7.00
2022,01,31,11,27,7.00
2022,01,31,11,28,7.10
2022,01,31,11,29,7.10
2022,01,31,11,30,7.10
2022,01,31,11,31,7.10
2022,01,31,11,32,7.20
2022,01,31,11,33,7.20
2022,01,31,11,34,7.20
2022,01,31,11,35,7.20
2022,01,31,11,36,7.30
2022,01,31,11,37,7.30
2022,01,31,11,38,7.30
2022,01,31,11,39,7.30
2022,01,31,11,40,7.40
2022,01,31,11,41,7.40
2022,01,31,11,42,7.40
2022,01,31,11,43,7.40
2022,01,31,11,44,7.50
2022,01,31,11,45,7.50
2022,01,31,11,46,7.60
2022,01,31,11,47,7.60
2022,01,31,11,48,7.60
2022,01,31,11,49,7.70
2022,01,31,11,50,7.70
2022,01,31,11,51,7.70
2022,01,31,11,52,7.80
2022,01,31,11,53,7.80
2022,01,31,11,54,7.80
2022,01,31,11,55,7.80
2022,01,31,11,56,7.80
2022,01,31,11,57,7.90
2022,01,31,11,58,7.90
2022,01,31,11,59,7.90
2022,01,31,12,00,8.00
2022,01,31,12,01,8.00
2022,01,31,12,02,8.10
2022,01,31,12,03,8.10
2022,01,31,12,04,8.10
2022,01,31,12,05,8.10
2022,01,31,12,06,8.10
2022,01,31,12,07,8.20
2022,01,31,12,08,8.20
2022,01,31,12,09,8.30
2022,01,31,12,10,8.30
2022,01,31,12,11,8.30
2022,01,31,12,12,8.30
2022,01,31,12,13,8.30
2022,01,31,12,14,8.30
2022,01,31,12,15,8.30
2022,01,31,12,16,8.30
2022,01,31,12,17,8.30
2022,01,31,12,18,8.30
2022,01,31,12,19,8.30
2022,01,31,12,20,8.30
2022,01,31,12,21,8.30
2022,01,31,12,22,8.40
2022,01,31,12,23,8.40
2022,01,31,12,24,8.40
2022,01,31,12,25,8.50
2022,01,31,12,26,8.50
2022,01,31,12,27,8.50
2022,01,31,12,28,8.40
2022,01,31,12,29,8.50
2022,01,31,12,30,8.50
2022,01,31,12,31,8.50
2022,01,31,12,32,8.50
2022,01,31,12,33,8.40
2022,01,31,12,34,8.40
2022,01,31,12,35,8.30
2022,01,31,12,36,8.20
2022,01,31,12,37,8.20
2022,01,31,12,38,8.20
2022,01,31,12,39,8.20
2022,01,31,12,40,8.10
2022,01,31,12,41,8.00
2022,01,31,12,42,8.00
2022,01,31,12,43,7.90
2022,01,31,12,44,7.80
2022,01,31,12,45,7.80
2022,01,31,12,46,7.70
2022,01,31,12,47,7.70
2022,01,31,12,48,7.70
2022,01,31,12,49,7.70
2022,01,31,12,50,7.60
2022,01,31,12,51,7.60
2022,01,31,12,52,7.60
2022,01,31,12,53,7.70
2022,01,31,12,54,7.70
2022,01,31,12,55,7.80
2022,01,31,12,56,7.80
2022,01,31,12,57,7.80
2022,01,31,12,58,7.80
2022,01,31,12,59,7.80
2022,01,31,13,00,7.80
2022,01,31,13,01,7.80
2022,01,31,13,02,7.80
2022,01,31,13,03,7.80
2022,01,31,13,04,7.80
2022,01,31,13,05,7.90
2022,01,31,13,06,7.90
2022,01,31,13,07,7.90
2022,01,31,13,08,7.90
2022,01,31,13,09,7.90
2022,01,31,13,10,7.90
2022,01,31,13,11,7.90
2022,01,31,13,12,7.90
2022,01,31,13,13,7.90
2022,01,31,13,14,8.00
2022,01,31,13,15,8.00
2022,01,31,13,16,8.10
2022,01,31,13,17,8.10
2022,01,31,13,18,8.00
2022,01,31,13,19,8.10
2022,01,31,13,20,8.00
2022,01,31,13,21,7.90
2022,01,31,13,22,7.90
2022,01,31,13,23,8.00
2022,01,31,13,24,8.10
2022,01,31,13,25,8.10
2022,01,31,13,26,8.10
2022,01,31,13,27,8.20
2022,01,31,13,28,8.20
2022,01,31,13,29,8.20
2022,01,31,13,30,8.20
2022,01,31,13,31,8.10
2022,01,31,13,32,8.20
2022,01,31,13,33,8.20
2022,01,31,13,34,8.20
2022,01,31,13,35,8.20
2022,01,31,13,36,8.20
2022,01,31,13,37,8.20
2022,01,31,13,38,8.20
2022,01,31,13,39,8.30
2022,01,31,13,40,8.30
2022,01,31,13,41,8.30
2022,01,31,13,42,8.30
2022,01,31,13,43,8.30
2022,01,31,13,44,8.30
2022,01,31,13,45,8.30
2022,01,31,13,46,8.30
2022,01,31,13,47,8.30
2022,01,31,13,48,8.30
2022,01,31,13,49,8.30
2022,01,31,13,50,8.30
2022,01,31,13,51,8.30
2022,01,31,13,52,8.20
2022,01,31,13,53,8.20
2022,01,31,13,54,8.20
2022,01,31,13,55,8.30
2022,01,31,13,56,8.30
2022,01,31,13,57,8.20
2022,01,31,13,58,8.20
2022,01,31,13,59,8.20
2022,01,31,14,00,8.30
2022,01,31,14,01,8.30
2022,01,31,14,02,8.30
2022,01,31,14,03,8.40
2022,01,31,14,04,8.30
2022,01,31,14,05,8.30
2022,01,31,14,06,8.30
2022,01,31,14,07,8.30
2022,01,31,14,08,8.20
2022,01,31,14,09,8.20
2022,01,31,14,10,8.30
2022,01,31,14,11,8.30
2022,01,31,14,12,8.30
2022,01,31,14,13,8.30
2022,01,31,14,14,8.30
2022,01,31,14,15,8.30
2022,01,31,14,16,8.30
2022,01,31,14,17,8.20
2022,01,31,14,18,8.20
2022,01,31,14,19,8.20
2022,01,31,14,20,8.30
2022,01,31,14,21,8.30
2022,01,31,14,22,8.40
2022,01,31,14,23,8.40
2022,01,31,14,24,8.50
2022,01,31,14,25,8.50
2022,01,31,14,26,8.60
2022,01,31,14,27,8.60
2022,01,31,14,28,8.60
2022,01,31,14,29,8.60
2022,01,31,14,30,8.50
2022,01,31,14,31,8.50
2022,01,31,14,32,8.40
2022,01,31,14,33,8.40
2022,01,31,14,34,8.40
2022,01,31,14,35,8.40
2022,01,31,14,36,8.40
2022,01,31,14,37,8.40
2022,01,31,14,38,8.40
2022,01,31,14,39,8.40
2022,01,31,14,40,8.30
2022,01,31,14,41,8.30
2022,01,31,14,42,8.20
2022,01,31,14,43,8.20
2022,01,31,14,44,8.10
2022,01,31,14,45,8.10
2022,01,31,14,46,8.00
2022,01,31,14,47,7.90
2022,01,31,14,48,7.80
2022,01,31,14,49,7.80
2022,01,31,14,50,7.80
2022,01,31,14,51,7.70
2022,01,31,14,52,7.70
2022,01,31,14,53,7.70
2022,01,31,14,54,7.70
2022,01,31,14,55,7.70
2022,01,31,14,56,7.70
2022,01,31,14,57,7.70
2022,01,31,14,58,7.60
2022,01,31,14,59,7.60
2022,01,31,15,00,7.60
2022,01,31,15,01,7.60
2022,01,31,15,02,7.60
2022,01,31,15,03,7.60
2022,01,31,15,04,7.60
2022,01,31,15,05,7.60
2022,01,31,15,06,7.60
2022,01,31,15,07,7.60
2022,01,31,15,08,7.60
2022,01,31,15,09,7.60
2022,01,31,15,10,7.60
2022,01,31,15,11,7.60
2022,01,31,15,12,7.60
2022,01,31,15,13,7.60
2022,01,31,15,14,7.60
2022,01,31,15,15,7.60
2022,01,31,15,16,7.60
2022,01,31,15,17,7.60
2022,01,31,15,18,7.60
2022,01,31,15,19,7.50
2022,01,31,15,20,7.50
2022,01,31,15,21,7.50
2022,01,31,15,22,7.40
2022,01,31,15,23,7.40
2022,01,31,15,24,7.40
2022,01,31,15,25,7.40
2022,01,31,15,26,7.40
2022,01,31,15,27,7.40
2022,01,31,15,28,7.30
2022,01,31,15,29,7.30
2022,01,31,15,30,7.20
2022,01,31,15,31,7.10
2022,01,31,15,32,7.10
2022,01,31,15,33,7.00
2022,01,31,15,34,6.90
2022,01,31,15,35,6.80
2022,01,31,15,36,6.80
2022,01,31,15,37,6.70
2022,01,31,15,38,6.60
2022,01,31,15,39,6.50
2022,01,31,15,40,6.40
2022,01,31,15,41,6.30
2022,01,31,15,42,6.30
2022,01,31,15,43,6.20
2022,01,31,15,44,6.20
2022,01,31,15,45,6.10
2022,01,31,15,46,6.10
2022,01,31,15,47,6.10
2022,01,31,15,48,6.10
2022,01,31,15,49,6.10
2022,01,31,15,50,6.10
2022,01,31,15,51,6.10
2022,01,31,15,52,6.10
2022,01,31,15,53,6.00
2022,01,31,15,54,6.00
2022,01,31,15,55,6.10
2022,01,31,15,56,6.10
2022,01,31,15,57,6.10
2022,01,31,15,58,6.10
2022,01,31,15,59,6.10
2022,01,31,16,00,6.10
2022,01,31,16,01,6.00
2022,01,31,16,02,6.00
2022,01,31,16,03,6.00
2022,01,31,16,04,5.90
2022,01,31,16,05,5.90
2022,01,31,16,06,5.90
2022,01,31,16,07,5.80
2022,01,31,16,08,5.80
2022,01,31,16,09,5.80
2022,01,31,16,10,5.80
2022,01,31,16,11,5.80
2022,01,31,16,12,5.80
2022,01,31,16,13,5.70
2022,01,31,16,14,5.70
2022,01,31,16,15,5.70
2022,01,31,16,16,5.70
2022,01,31,16,17,5.70
2022,01,31,16,18,5.70
2022,01,31,16,19,5.70
2022,01,31,16,20,5.70
2022,01,31,16,21,5.70
2022,01,31,16,22,5.70
2022,01,31,16,23,5.70
2022,01,31,16,24,5.70
2022,01,31,16,25,5.70
2022,01,31,16,26,5.70
2022,01,31,16,27,5.70
2022,01,31,16,28,5.70
2022,01,31,16,29,5.70
2022,01,31,16,30,5.70
2022,01,31,16,31,5.70
2022,01,31,16,32,5.70
2022,01,31,16,33,5.70
2022,01,31,16,34,5.70
2022,01,31,16,35,5.70
2022,01,31,16,36,5.70
2022,01,31,16,37,5.70
2022,01,31,16,38,5.70
2022,01,31,16,39,5.70
2022,01,31,16,40,5.70
2022,01,31,16,41,5.70
2022,01,31,16,42,5.70
2022,01,31,16,43,5.70
2022,01,31,16,44,5.70
2022,01,31,16,45,5.70
2022,01,31,16,46,5.60
2022,01,31,16,47,5.60
2022,01,31,16,48,5.60
2022,01,31,16,49,5.60
2022,01,31,16,50,5.60
2022,01,31,16,51,5.50
2022,01,31,16,52,5.50
2022,01,31,16,53,5.50
2022,01,31,16,54,5.40
2022,01,31,16,55,5.40
2022,01,31,16,56,5.40
2022,01,31,16,57,5.40
2022,01,31,16,58,5.40
2022,01,31,16,59,5.40
2022,01,31,17,00,5.40
2022,01,31,17,01,5.40
2022,01,31,17,02,5.40
2022,01,31,17,03,5.40
2022,01,31,17,04,5.40
2022,01,31,17,05,5.40
2022,01,31,17,06,5.40
2022,01,31,17,07,5.40
2022,01,31,17,08,5.40
2022,01,31,17,09,5.40
2022,01,31,17,10,5.40
2022,01,31,17,11,5.40
2022,01,31,17,12,5.40
2022,01,31,17,13,5.30
2022,01,31,17,14,5.30
2022,01,31,17,15,5.30
2022,01,31,17,16,5.30
2022,01,31,17,17,5.30
2022,01,31,17,18,5.30
2022,01,31,17,19,5.30
2022,01,31,17,20,5.30
2022,01,31,17,21,5.30
2022,01,31,17,22,5.30
2022,01,31,17,23,5.30
2022,01,31,17,24,5.30
2022,01,31,17,25,5.30
2022,01,31,17,26,5.30
2022,01,31,17,27,5.20
2022,01,31,17,28,5.20
2022,01,31,17,29,5.20
2022,01,31,17,30,5.20
2022,01,31,17,31,5.10
2022,01,31,17,32,5.10
2022,01,31,17,33,5.00
2022,01,31,17,34,5.00
2022,01,31,17,35,5.00
2022,01,31,17,36,4.90
2022,01,31,17,37,4.90
2022,01,31,17,38,4.90
2022,01,31,17,39,4.80
2022,01,31,17,40,4.80
2022,01,31,17,41,4.70
2022,01,31,17,42,4.70
2022,01,31,17,43,4.60
2022,01,31,17,44,4.60
2022,01,31,17,45,4.50
2022,01,31,17,46,4.50
2022,01,31,17,47,4.40
2022,01,31,17,48,4.40
2022,01,31,17,49,4.30
2022,01,31,17,50,4.30
2022,01,31,17,51,4.30
2022,01,31,17,52,4.20
2022,01,31,17,53,4.20
2022,01,31,17,54,4.10
2022,01,31,17,55,4.10
2022,01,31,17,56,4.10
2022,01,31,17,57,4.00
2022,01,31,17,58,4.00
2022,01,31,17,59,4.00
2022,01,31,18,00,3.90
2022,01,31,18,01,3.90
2022,01,31,18,02,3.90
2022,01,31,18,03,3.90
2022,01,31,18,04,3.90
2022,01,31,18,05,3.90
2022,01,31,18,06,3.80
2022,01,31,18,07,3.80
2022,01,31,18,08,3.80
2022,01,31,18,09,3.80
2022,01,31,18,10,3.80
2022,01,31,18,11,3.80
2022,01,31,18,12,3.80
2022,01,31,18,13,3.70
2022,01,31,18,14,3.70
2022,01,31,18,15,3.70
2022,01,31,18,16,3.70
2022,01,31,18,17,3.70
2022,01,31,18,18,3.70
2022,01,31,18,19,3.70
2022,01,31,18,20,3.70
2022,01,31,18,21,3.60
2022,01,31,18,22,3.60
2022,01,31,18,23,3.50
2022,01,31,18,24,3.50
2022,01,31,18,25,3.40
2022,01,31,18,26,3.40
2022,01,31,18,27,3.40
2022,01,31,18,28,3.30
2022,01,31,18,29,3.30
2022,01,31,18,30,3.30
2022,01,31,18,31,3.30
2022,01,31,18,32,3.30
2022,01,31,18,33,3.20
2022,01,31,18,34,3.20
2022,01,31,18,35,3.20
2022,01,31,18,36,3.20
2022,01,31,18,37,3.20
2022,01,31,18,38,3.10
2022,01,31,18,39,3.10
2022,01,31,18,40,3.10
2022,01,31,18,41,3.10
2022,01,31,18,42,3.10
2022,01,31,18,43,3.10
2022,01,31,18,44,3.10
2022,01,31,18,45,3.10
2022,01,31,18,46,3.00
2022,01,31,18,47,3.00
2022,01,31,18,48,3.00
2022,01,31,18,49,3.00
2022,01,31,18,50,3.00
2022,01,31,18,51,3.00
2022,01,31,18,52,2.90
2022,01,31,18,53,2.90
2022,01,31,18,54,2.90
2022,01,31,18,55,2.90
2022,01,31,18,56,2.90
2022,01,31,18,57,2.90
2022,01,31,18,58,2.90
2022,01,31,18,59,2.90
2022,01,31,19,00,2.90
2022,01,31,19,01,2.80
2022,01,31,19,02,2.80
2022,01,31,19,03,2.80
2022,01,31,19,04,2.70
2022,01,31,19,05,2.60
2022,01,31,19,06,2.50
2022,01,31,19,07,2.40
2022,01,31,19,08,2.40
2022,01,31,19,09,2.30
2022,01,31,19,10,2.20
2022,01,31,19,11,2.20
2022,01,31,19,12,2.10
2022,01,31,19,13,2.00
2022,01,31,19,14,2.00
2022,01,31,19,15,1.90
2022,01,31,19,16,1.90
2022,01,31,19,17,1.90
2022,01,31,19,18,1.80
2022,01,31,19,19,1.80
2022,01,31,19,20,1.80
2022,01,31,19,21,1.70
2022,01,31,19,22,1.70
2022,01,31,19,23,1.70
2022,01,31,19,24,1.70
2022,01,31,19,25,1.70
2022,01,31,19,26,1.60
2022,01,31,19,27,1.60
2022,01,31,19,28,1.60
2022,01,31,19,29,1.60
2022,01,31,19,30,1.60
2022,01,31,19,31,1.60
2022,01,31,19,32,1.50
2022,01,31,19,33,1.50
2022,01,31,19,34,1.50
2022,01,31,19,35,1.50
2022,01,31,19,36,1.50
2022,01,31,19,37,1.50
2022,01,31,19,38,1.50
2022,01,31,19,39,1.50
2022,01,31,19,40,1.50
2022,01,31,19,41,1.50
2022,01,31,19,42,1.60
2022,01,31,19,43,1.60
2022,01,31,19,44,1.60
2022,01,31,19,45,1.60
2022,01,31,19,46,1.60
2022,01,31,19,47,1.50
2022,01,31,19,48,1.50
2022,01,31,19,49,1.50
2022,01,31,19,50,1.40
2022,01,31,19,51,1.40
2022,01,31,19,52,1.30
2022,01,31,19,53,1.30
2022,01,31,19,54,1.30
2022,01,31,19,55,1.30
2022,01,31,19,56,1.30
2022,01,31,19,57,1.20
2022,01,31,19,58,1.20
2022,01,31,19,59,1.20
2022,01,31,20,00,1.20
2022,01,31,20,01,1.20
2022,01,31,20,02,1.20
2022,01,31,20,03,1.10
2022,01,31,20,04,1.10
2022,01,31,20,05,1.10
2022,01,31,20,06,1.10
2022,01,31,20,07,1.10
2022,01,31,20,08,1.10
2022,01,31,20,09,1.10
2022,01,31,20,10,1.10
2022,01,31,20,11,1.10
2022,01,31,20,12,1.10
2022,01,31,20,13,1.10
2022,01,31,20,14,1.10
2022,01,31,20,15,1.10
2022,01,31,20,16,1.10
2022,01,31,20,17,1.10
2022,01,31,20,18,1.10
2022,01,31,20,19,1.10
2022,01,31,20,20,1.20
2022,01,31,20,21,1.20
2022,01,31,20,22,1.20
2022,01,31,20,23,1.20
2022,01,31,20,24,1.20
2022,01,31,20,25,1.20
2022,01,31,20,26,1.20
2022,01,31,20,27,1.20
2022,01,31,20,28,1.20
2022,01,31,20,29,1.20
2022,01,31,20,30,1.30
2022,01,31,20,31,1.20
2022,01,31,20,32,1.20
2022,01,31,20,33,1.20
2022,01,31,20,34,1.10
2022,01,31,20,35,1.00
2022,01,31,20,36,1.00
2022,01,31,20,37,0.90
2022,01,31,20,38,0.80
2022,01,31,20,39,0.80
2022,01,31,20,40,0.70
2022,01,31,20,41,0.70
2022,01,31,20,42,0.70
2022,01,31,20,43,0.60
2022,01,31,20,44,0.60
2022,01,31,20,45,0.60
2022,01,31,20,46,0.60
2022,01,31,20,47,0.60
2022,01,31,20,48,0.60
2022,01,31,20,49,0.60
2022,01,31,20,50,0.60
2022,01,31,20,51,0.60
2022,01,31,20,52,0.60
2022,01,31,20,53,0.60
2022,01,31,20,54,0.50
2022,01,31,20,55,0.50
2022,01,31,20,56,0.40
2022,01,31,20,57,0.40
2022,01,31,20,58,0.40
2022,01,31,20,59,0.40
2022,01,31,21,00,0.30
2022,01,31,21,01,0.30
2022,01,31,21,02,0.30
2022,01,31,21,03,0.30
2022,01,31,21,04,0.20
2022,01,31,21,05,0.20
2022,01,31,21,06,0.20
2022,01,31,21,07,0.20
2022,01,31,21,08,0.20
2022,01,31,21,09,0.30
2022,01,31,21,10,0.30
2022,01,31,21,11,0.40
2022,01,31,21,12,0.40
2022,01,31,21,13,0.50
2022,01,31,21,14,0.50
2022,01,31,21,15,0.60
2022,01,31,21,16,0.60
2022,01,31,21,17,0.60
2022,01,31,21,18,0.60
2022,01,31,21,19,0.60
2022,01,31,21,20,0.70
2022,01,31,21,21,0.70
2022,01,31,21,22,0.70
2022,01,31,21,23,0.80
2022,01,31,21,24,0.90
2022,01,31,21,25,0.90
2022,01,31,21,26,1.00
2022,01,31,21,27,1.00
2022,01,31,21,28,1.10
2022,01,31,21,29,1.20
2022,01,31,21,30,1.30
2022,01,31,21,31,1.40
2022,01,31,21,32,1.50
2022,01,31,21,33,1.60
2022,01,31,21,34,1.60
2022,01,31,21,35,1.70
2022,01,31,21,36,1.70
2022,01,31,21,37,1.80
2022,01,31,21,38,1.80
2022,01,31,21,39,1.80
2022,01,31,21,40,1.90
2022,01,31,21,41,1.90
2022,01,31,21,42,1.90
2022,01,31,21,43,1.90
2022,01,31,21,44,1.80
2022,01,31,21,45,1.80
2022,01,31,21,46,1.70
2022,01,31,21,47,1.70
2022,01,31,21,48,1.60
2022,01,31,21,49,1.50
2022,01,31,21,50,1.40
2022,01,31,21,51,1.40
2022,01,31,21,52,1.30
2022,01,31,21,53,1.30
2022,01,31,21,54,1.30
2022,01,31,21,55,1.30
2022,01,31,21,56,1.30
2022,01,31,21,57,1.40
2022,01,31,21,58,1.40
2022,01,31,21,59,1.40
2022,01,31,22,00,1.40
2022,01,31,22,01,1.40
2022,01,31,22,02,1.40
2022,01,31,22,03,1.30
2022,01,31,22,04,1.30
2022,01,31,22,05,1.20
2022,01,31,22,06,1.20
2022,01,31,22,07,1.20
2022,01,31,22,08,1.30
2022,01,31,22,09,1.20
2022,01,31,22,10,1.20
2022,01,31,22,11,1.20
2022,01,31,22,12,1.20
2022,01,31,22,13,1.30
2022,01,31,22,14,1.30
2022,01,31,22,15,1.30
2022,01,31,22,16,1.30
2022,01,31,22,17,1.30
2022,01,31,22,18,1.30
2022,01,31,22,19,1.30
2022,01,31,22,20,1.40
2022,01,31,22,21,1.40
2022,01,31,22,22,1.40
2022,01,31,22,23,1.40
2022,01,31,22,24,1.40
2022,01,31,22,25,1.40
2022,01,31,22,26,1.40
2022,01,31,22,27,1.40
2022,01,31,22,28,1.40
2022,01,31,22,29,1.40
2022,01,31,22,30,1.40
2022,01,31,22,31,1.30
2022,01,31,22,32,1.30
2022,01,31,22,33,1.30
2022,01,31,22,34,1.30
2022,01,31,22,35,1.30
2022,01,31,22,36,1.30
2022,01,31,22,37,1.30
2022,01,31,22,38,1.30
2022,01,31,22,39,1.30
2022,01,31,22,40,1.30
2022,01,31,22,41,1.30
2022,01,31,22,42,1.30
2022,01,31,22,43,1.30
2022,01,31,22,44,1.30
2022,01,31,22,45,1.30
2022,01,31,22,46,1.30
2022,01,31,22,47,1.30
2022,01,31,22,48,1.30
2022,01,31,22,49,1.30
2022,01,31,22,50,1.30
2022,01,31,22,51,1.30
2022,01,31,22,52,1.30
2022,01,31,22,53,1.30
2022,01,31,22,54,1.30
2022,01,31,22,55,1.30
2022,01,31,22,56,1.30
2022,01,31,22,57,1.30
2022,01,31,22,58,1.30
2022,01,31,22,59,1.30
2022,01,31,23,00,1.30
2022,01,31,23,01,1.30
2022,01,31,23,02,1.30
2022,01,31,23,03,1.30
2022,01,31,23,04,1.30
2022,01,31,23,05,1.30
2022,01,31,23,06,1.30
2022,01,31,23,07,1.30
2022,01,31,23,08,1.40
2022,01,31,23,09,1.40
2022,01,31,23,10,1.50
2022,01,31,23,11,1.50
2022,01,31,23,12,1.50
2022,01,31,23,13,1.60
2022,01,31,23,14,1.60
2022,01,31,23,15,1.60
2022,01,31,23,16,1.60
2022,01,31,23,17,1.60
2022,01,31,23,18,1.60
2022,01,31,23,19,1.70
2022,01,31,23,20,1.70
2022,01,31,23,21,1.80
2022,01,31,23,22,1.80
2022,01,31,23,23,1.90
2022,01,31,23,24,1.90
2022,01,31,23,25,1.90
2022,01,31,23,26,1.90
2022,01,31,23,27,1.90
2022,01,31,23,28,1.90
2022,01,31,23,29,1.90
2022,01,31,23,30,1.90
2022,01,31,23,31,1.90
2022,01,31,23,32,1.90
2022,01,31,23,33,1.90
2022,01,31,23,34,2.00
2022,01,31,23,35,2.00
2022,01,31,23,36,2.10
2022,01,31,23,37,2.10
2022,01,31,23,38,2.10
2022,01,31,23,39,2.10
2022,01,31,23,40,2.20
2022,01,31,23,41,2.30
2022,01,31,23,42,2.30
2022,01,31,23,43,2.30
2022,01,31,23,44,2.40